星链-4556 (STARLINK-4556 )

导读

STARLINK-4556是美国太空探索技术公司(SpaceX)星链计划中的卫星,于2022年8月19日发射升空,属于星链星座组网卫星,旨在为全球提供低延迟、高速率的宽带互联网服务,依托星链低轨星座部署,可支持包括偏远地区网络覆盖、特殊场景通信保障等多元应用需求。

基本信息
目录编号:
53578
目录名称:
STARLINK-4556
国际标识:
2022-101BD
轨道中心:
EARTH
卫星名称:
星链-4556
卫星全名:
星链-4556 (STARLINK-4556 )
卫星状态:
在轨 (已飞行1398 天)
发射日期:
2022-08-19 UTC
国别 :
美国 (US)
星等 :
--
轨道信息
数据来源 国际轨道数据 AOE轨道数据
星历时间 2026-06-17T12:00:02+0800
6小时前
查看轨道信息
2026-06-15T01:00:00+0800
2天前
查看轨道信息
半长轴 6908.869km 6917.92km
偏心率 0.0001435 0.0000573
轨道倾角 53.160° 53.157°
近地点辐角 67.144° 88.510°
升交点赤经 327.066° 338.141°
平近点角 101.114° 28.147°
近地点 529.74km 539.386km
远地点 531.724km 540.18km
周期 95.251分钟 95.438分钟
每日圈数 15.117933 15.088272
详细信息
固有亮度:
5
最大亮度:
2.5
卫星平台:
Starlink v1.5
覆盖范围:
全球
运营商:
太空探索技术公司
运营商所在国:
美国
制造商(研发单位):
太空探索技术公司
制造商所在国:
美国
使用方式:
暂无
卫星简介
星链(Starlink)计划是由太空探索技术公司(SpaceX)提出的一个巨型低轨卫星互联网星座项目,计划在2019年至2024年间在太空搭建由约1.2万颗卫星组成的“星链”网络,其中1584颗将部署在地球上空550千米处的近地轨道,并从2020年开始工作。该卫星仍在工作。
2D轨道图
3D轨道图
轨道高度分析图
轨道倾角分析图
轨道综合分析图
查看轨道综合分析图